CAPE
0 0 0 0 0 0 0 0 0 0 0 0 0 0 0 0 4 1 0 3 0 0 0 0 19 0 4 10 6 215 285 315 331 422 432 331 168 126 102 75 64 374 538 693 744 739 622 769 1105 1064 1062 1196 1310 1656 2224 2655 2744 2933 2658 2819 2791 2984 2959 3048 3002 2958 2764 2690 2757 2882 2572 2618 2556 3050 2923 2736 2460 2123 2206 3000 4018 4281 4175 4083 4094 4073
0 0 0 0 0 0 0 0 0 0 0 0 0 0 0 4 5 0 0 2 0 0 0 0 33 40 0 78 84 140 72 412 280 450 561 472 254 250 302 229 108 267 436 628 790 900 686 641 771 793 1126 1008 1214 1568 2040 2272 2556 2841 2654 2781 2928 2857 3114 2988 3007 3254 3257 2997 2548 2666 2548 2171 2016 2792 2864 2854 2749 1984 1957 3793 4154 4676 4326 4392 4147 4201
0 0 0 0 0 0 0 0 0 0 0 0 0 0 1 6 8 4 1 6 4 0 6 0 0 20 5 31 93 100 131 428 378 472 498 781 468 494 356 350 322 215 533 525 940 702 754 694 712 1045 1164 1015 1042 1294 1597 2255 2741 2977 2916 2943 3273 2850 2953 3106 3046 3366 3298 3058 2774 2484 2530 2410 2124 2263 2464 2230 2273 2418 2159 3552 4105 4260 4737 4150 4349 3832
0 0 0 0 0 0 0 0 0 0 0 0 0 0 0 0 1 8 0 3 2 0 8 0 0 0 9 38 330 192 276 309 422 396 446 494 761 326 378 466 581 365 716 402 826 802 554 628 1081 1204 1273 1317 1303 1566 1551 2148 2727 3027 3088 3056 3312 3221 2884 2927 3176 3263 3228 3145 3042 3089 3168 2742 2381 2183 2189 2533 2528 2430 2138 2464 4082 4717 4532 4039 3964 3885
0 0 0 0 0 0 0 0 0 0 0 0 0 0 0 0 3 2 10 5 12 0 0 0 0 0 0 20 28 133 42 209 266 383 367 505 567 593 469 403 702 557 862 793 472 876 784 946 715 1437 1483 1390 1425 1721 1728 1965 2436 2782 3171 3158 3192 3630 3218 2919 3120 3219 3403 3280 3231 3348 3182 3183 2907 2252 2323 2283 2214 2322 2508 2022 3666 4517 4203 3794 3539 3075
0 0 0 0 0 0 0 0 0 0 0 0 0 0 0 0 0 2 2 8 2 4 0 0 0 0 1 10 40 71 81 167 348 584 563 754 582 642 606 669 662 676 890 1008 1038 1098 938 664 1168 1654 1772 1612 1608 1759 1876 1887 2350 3019 3306 3282 3250 3648 3630 3220 3054 3231 3446 3364 3329 3518 3407 3290 3317 2978 2587 2726 2573 2216 2330 1876 1762 4457 3669 3287 3337 3040
0 0 0 0 0 0 0 0 0 0 0 0 0 0 0 0 0 1 0 3 3 3 1 0 0 1 0 0 38 8 81 120 326 562 518 637 860 536 433 590 527 466 426 603 822 787 830 899 1138 1540 1870 1650 1592 1782 2010 2129 2454 3343 3720 3545 3470 3617 3704 3502 3336 3265 3365 3578 3646 3568 3352 3320 3318 3110 2821 2974 2608 2721 2939 2870 2831 4123 3291 3312 3231 2670
0 0 0 0 0 0 0 0 0 0 0 0 0 0 0 0 0 2 5 5 2 0 1 6 0 0 15 15 66 79 98 57 232 248 548 532 638 401 337 248 742 513 564 865 1173 1210 1328 1458 1063 1305 1790 1738 1287 1735 2065 2434 2916 3565 3983 3884 3574 3594 3675 3555 3597 3418 3498 3591 3665 3647 3610 3683 3681 2995 3265 3156 3432 3637 3390 3267 2701 2624 3293 3212 2912 2566
0 0 0 0 0 0 0 0 0 0 0 0 0 0 0 0 0 0 1 2 3 4 15 2 2 0 0 26 28 50 50 85 296 274 270 831 707 504 501 464 538 528 816 826 1213 1300 1399 1714 1339 1474 1747 1682 1514 1672 2146 2496 2954 3616 3977 4017 3867 3778 3853 3757 3884 3717 3682 3687 3772 3798 3876 4011 3744 3390 3543 3406 3355 3582 3249 3109 2960 3159 2964 3253 3022 2877
0 0 0 0 0 0 0 0 0 0 0 0 0 0 0 0 0 0 0 3 8 4 9 34 13 3 0 2 0 12 7 49 82 124 168 407 585 606 446 512 498 453 913 866 941 1460 1568 1773 1561 1198 1600 1751 1754 1942 2234 2370 2993 3548 3913 4084 4032 4009 3968 3947 3977 3967 3844 3860 3902 3944 4064 3990 3724 3524 3398 3180 3539 3672 3634 3139 3126 3027 3420 3036 3086 2886
0 0 0 0 0 0 0 0 0 0 0 0 0 0 0 0 0 0 0 0 15 9 9 3 0 0 0 0 0 0 6 2 29 116 95 395 476 582 384 205 193 654 1028 1112 1121 1426 1738 1772 1715 1577 1523 1770 1993 2030 2353 2432 2868 3181 3690 4149 4175 4173 4130 4102 4064 4070 4155 4020 4010 3969 4072 3944 3772 3685 3667 3634 3590 3553 3527 3273 3101 3434 3463 3245 3018 2382
0 0 0 0 0 0 0 0 0 0 0 0 0 0 0 0 0 5 1 10 0 0 6 2 0 7 0 0 0 0 0 0 0 0 13 69 478 583 497 226 306 686 1137 1111 1009 1226 1614 1581 1787 1617 1695 1964 2262 2215 2354 2279 2826 3072 3544 3946 4296 4382 4250 4231 4122 4070 4212 4089 4078 3967 4071 4006 3811 3709 3450 3585 3298 3247 3241 3059 3253 3450 3469 3250 3204 2875
0 0 0 0 0 0 0 0 0 0 0 0 0 0 0 0 0 0 0 9 0 0 0 1 1 5 1 0 0 0 0 0 0 0 0 0 103 361 349 575 837 821 613 1097 1690 1644 1787 1762 1882 2142 2194 2148 2463 2456 2528 2181 2037 3012 3592 3955 4270 4528 4478 4184 4120 3993 4159 4228 4167 4097 3990 3940 3908 3990 3803 3774 3521 3253 3325 3295 3301 3615 3417 3256 3214 2919
0 0 0 0 0 0 0 0 0 0 0 0 0 0 0 0 0 0 0 0 2 2 0 0 2 0 0 4 0 0 0 0 0 1 0 2 62 243 642 1150 976 822 664 902 1246 1299 1676 1557 1402 1599 2178 2202 2399 2483 2456 2330 2372 2855 3435 3965 4272 4530 4566 4218 4074 4106 4237 4334 4375 4224 3985 3983 3915 3990 4038 4051 3703 3474 3532 3818 3338 3014 2987 3218 2924 2534
0 0 0 0 0 0 0 0 0 0 0 0 0 0 0 0 0 0 0 0 0 1 0 0 0 0 0 0 2 0 0 1 0 0 106 148 26 454 637 873 734 664 759 891 1095 1105 1514 2034 2111 2202 2524 2415 2542 2481 2150 2472 2701 2989 3312 4013 4264 4566 4677 4416 4121 4255 4261 4413 4485 4369 4065 4038 4018 3907 4027 4021 3758 3677 3563 3668 3404 3270 2876 3102 2867 2748
0 0 0 0 0 0 0 0 0 0 0 0 0 0 0 0 0 0 0 0 0 1 0 0 0 0 0 0 17 8 7 3 0 1 0 48 135 39 486 866 609 618 523 519 1010 1536 1846 2238 2028 2162 2606 2626 2594 2623 2228 2416 2791 2996 3199 3968 4353 4550 4661 4530 4202 4238 4288 4393 4395 4397 4159 4090 3990 3820 3831 3989 3909 4128 3657 3618 3395 3449 3294 2983 3254 3090
0 0 0 0 0 0 0 0 0 0 0 0 0 0 0 0 0 0 0 2 21 1 0 0 0 0 0 0 0 0 3 3 6 5 5 0 0 12 114 595 599 565 502 562 893 1523 1987 1879 2186 2690 2629 2439 2418 2442 2339 2514 2701 3006 3231 3759 4384 4583 4646 4622 4219 4092 4275 4448 4403 4420 4294 4121 3989 3823 3719 3799 3955 3384 3648 3711 3441 3396 3116 3084 3329 2741
0 0 0 0 0 0 0 0 0 0 0 0 0 0 0 0 0 0 0 0 0 3 0 0 0 1 4 1 0 0 3 1 8 2 2 15 29 35 479 553 658 628 860 990 1368 1708 1962 2047 2582 2639 2431 2064 2263 2234 2521 2772 2707 2975 3237 3536 4170 4528 4743 4731 4434 4064 4123 4360 4484 4491 4388 4353 4178 3741 3409 3364 3638 3591 3647 3701 3460 3178 3154 2855 2836 2384
0 0 0 0 0 0 0 0 0 0 0 0 0 0 0 0 0 0 0 0 0 0 0 0 0 0 2 2 2 0 0 7 4 26 2 29 8 0 986 467 974 1159 926 1065 1054 1964 2136 1949 2305 2995 2602 2127 2286 2529 2791 2960 2797 2762 3133 3356 3665 4266 4609 4767 4278 4098 4097 4318 4325 4416 4327 4444 4352 3926 3471 3362 3674 3725 3701 3141 3370 2878 3010 2927 2592 2562
0 0 0 0 0 0 0 0 0 0 0 0 0 0 0 0 0 0 0 0 0 0 0 0 0 2 0 0 4 4 9 25 7 16 0 4 5 5 94 982 1394 927 872 823 780 1353 1750 1875 1696 2113 2450 2374 2357 2836 2812 2738 2484 2226 2633 3380 3546 3985 4625 4802 4645 4482 4444 4323 4252 4344 4429 4477 4441 4332 3881 3672 3768 3810 3621 3460 3109 2914 3085 3015 2691 2635
0 0 0 0 0 0 0 0 0 0 0 0 0 0 0 0 0 0 0 0 0 0 0 0 0 0 0 0 1 8 121 28 15 66 23 8 6 5 18 232 936 771 1177 1017 1214 1252 1505 1568 1696 2137 2417 2532 2449 2828 2647 2467 2325 1877 2218 2922 3413 4182 4379 4664 4726 4676 4499 4219 4258 4524 4696 4635 4613 4340 4120 4017 3756 3777 3723 3642 3280 3103 2895 3034 2740 2526
0 0 0 0 0 0 0 0 0 0 0 0 0 0 0 0 0 0 0 0 0 0 0 0 0 0 6 0 14 45 291 0 9 78 59 0 1 24 42 165 201 800 1363 1087 1022 1039 1433 2346 2646 2354 2324 2970 2595 2662 2635 2466 2152 1845 1865 2610 3306 3776 4038 4209 4756 4804 4513 4339 4553 4417 4678 4530 4566 4426 4102 3988 3907 3703 3739 3804 3544 3476 3330 3006 2909 2591
0 0 0 0 0 0 0 0 0 0 0 0 0 0 0 0 0 0 0 0 0 0 0 0 0 0 1 105 88 21 29 0 3 0 27 0 0 7 42 140 280 918 1145 810 778 751 963 2082 1983 1770 2110 3106 3004 3142 2817 2708 2247 2030 2284 2913 3005 3251 4051 4253 4428 4502 4665 4549 4542 4448 4620 4816 4726 4443 4205 3872 3846 3487 3408 3755 3822 3760 3581 3056 2900 2762
0 0 0 0 0 0 0 0 0 0 0 0 0 0 0 0 0 0 0 0 0 0 0 0 0 0 0 322 187 15 388 0 24 10 146 1 0 6 6 78 744 1679 1295 836 600 666 1471 1847 1893 1661 1815 3209 3350 3410 3409 3286 2899 2587 2562 2580 2674 3107 3835 4051 4115 4236 4723 4680 4624 4448 4704 4933 4911 4292 3956 3593 3630 3422 3179 2999 3778 3909 3759 3188 2814 2898
0 0 0 0 0 0 0 0 0 0 0 0 0 0 0 0 0 0 0 0 0 0 0 0 0 0 0 6 548 320 12 0 0 4 2 6 81 14 76 1378 1069 1791 1610 1271 1464 1690 1724 1472 1623 2172 3166 3824 3651 3623 3759 3626 3423 3117 3058 2787 2716 3074 3771 3859 3899 3741 4358 4372 4203 4322 4761 4855 4852 4625 4301 3971 3615 3511 3118 2989 3382 3803 3626 3356 2952 3035
0 0 0 0 0 0 0 0 0 0 0 0 0 0 0 0 0 0 0 0 0 2 16 0 0 0 29 46 42 63 54 117 12 0 0 16 715 155 388 1611 2507 2175 2894 2420 2563 2145 1694 1598 2214 3694 4386 4297 3904 3865 4034 3917 3679 3379 3289 3054 2970 3044 3461 3645 3462 3817 4231 3964 4332 4615 4806 4739 4530 4330 4374 4101 3709 3467 3312 3101 3752 3881 3701 3590 3223 3242
0 0 0 0 0 0 0 1 0 0 0 0 0 0 0 0 0 0 0 0 0 0 0 0 1 32 178 65 111 3 6 26 125 36 34 212 112 244 816 3467 3033 2785 3385 2951 3139 2503 2416 2528 3144 4424 4950 4551 3925 3927 4203 4098 3855 3520 3480 3156 2964 3155 3216 3519 3240 3772 4298 4654 4212 4862 4848 4743 4568 4584 4486 4258 3960 3746 3677 3243 3146 3384 3368 3324 3033 3013
0 0 0 19 0 0 0 0 0 0 0 0 0 0 0 0 0 0 0 0 0 0 0 0 105 14 0 17 166 161 2 22 114 145 20 146 604 748 138 329 4117 3983 3843 3960 3736 3656 3947 5412 5236 5103 5366 4775 4113 3998 4371 4197 3894 3689 3518 3114 2698 2852 2926 3118 3305 3763 4465 4800 4684 4972 5012 4912 4737 4569 4576 4414 4421 4226 3924 3717 3668 3790 3865 3661 3406 2980
0 0 0 0 0 0 0 0 0 0 0 0 0 0 0 0 0 0 0 0 0 0 0 0 123 139 30 0 0 69 376 253 18 17 0 83 128 317 3292 1946 4061 3880 3756 3656 3781 3717 4244 5775 6014 5729 5633 5084 4287 4046 4351 4249 3960 3818 3778 3196 2736 2464 2924 3184 3361 3726 4464 4907 4991 5225 5310 5252 5073 4771 4592 4741 4859 4662 4457 4300 4272 4298 4223 3922 3550 3254
0 0 0 0 0 0 0 0 0 0 0 0 0 0 0 0 0 0 0 0 0 0 0 0 103 15 0 0 0 0 11 16 94 207 54 108 37 292 3882 1183 777 2884 3568 3444 3878 4095 4688 5354 6101 5884 5866 5338 4571 4289 4284 4377 4250 3942 4074 3651 3328 2835 3146 3496 3614 3871 4548 5010 5232 5520 5555 5537 5437 5111 5099 5186 5209 5044 4799 4689 4720 4472 4320 4242 3848 3586
0 0 0 0 0 0 0 0 0 0 0 0 0 0 0 0 0 0 0 0 0 0 0 0 0 0 0 0 0 0 0 0 5 12 4 76 69 21 151 972 150 562 2249 3534 3731 3764 4207 4809 5672 5673 5587 5509 4929 4698 4473 4696 4548 4309 3613 3972 3424 3376 3525 3982 4152 4105 4700 5226 5624 5813 5877 5944 5877 5581 5410 5513 5538 5438 5176 5018 4974 4677 4251 4332 4094 3749
0 0 0 0 0 0 0 0 0 0 0 0 0 0 0 0 0 0 0 0 0 0 1 0 0 0 0 0 0 2 0 0 12 17 36 587 197 259 176 16 59 1075 2989 3627 3866 3273 4088 4413 5143 5332 5574 5429 5338 5065 4884 5030 4823 4552 3920 4259 3882 3463 4006 4437 4438 4262 4757 5422 5947 6112 6137 6104 6132 5985 5738 5716 5653 5608 5386 5241 5084 4773 4488 4391 4361 4013
0 0 0 0 0 0 0 0 0 0 0 0 0 0 0 0 0 0 0 0 0 0 0 0 0 0 7 43 5 0 0 0 1 3 3 2 703 459 199 228 77 660 1754 3103 3883 3833 4180 3920 4585 5191 5060 5119 5169 5110 5069 5206 4975 4724 4422 4733 4546 3900 4282 4853 4789 4650 4969 5711 6136 6292 6357 6306 6224 5934 5747 5608 5594 5452 5306 5163 4817 4564 4298 4123 4224 4172
0 0 0 0 0 0 0 0 0 0 5 0 0 0 0 0 0 0 0 0 0 0 0 0 0 12 25 8 3 13 8 28 154 282 344 553 742 2119 1534 292 124 90 341 3079 3990 4153 4145 4167 4681 5147 5508 5483 5381 4815 4848 4949 4958 4924 4846 5155 5074 4409 4569 5317 5154 5134 5268 5891 6219 6469 6396 6299 6026 5785 5605 5546 5425 5137 5014 4897 4666 4436 4291 4145 4150 4022
0 0 0 0 0 0 0 0 0 0 0 0 27 29 1 0 0 0 0 0 1 2 4 11 3 0 14 4 2 6 4 127 114 2 0 0 106 143 378 612 1136 456 272 1051 4395 4179 4563 4809 5318 5790 5920 5699 5172 5119 5236 5304 5240 5358 5219 5477 5187 4753 5456 5640 5453 5529 5481 5830 6235 6470 6360 6137 5947 5792 5583 5423 5229 5011 4851 4815 4660 4366 4230 4062 3961 3873
0 0 0 0 0 0 0 2 0 0 0 0 0 22 52 3 0 0 0 0 0 0 6 239 56 146 101 4 0 2 30 2 0 1 52 7 11 58 1 1 2 45 363 411 1719 5019 5254 5091 5374 5692 6035 5482 5337 4778 4943 5200 4823 4644 5263 5639 5233 5227 5836 5884 5777 5672 5692 5846 6276 6408 6223 6000 5840 5669 5371 5220 5097 5000 4885 4676 4384 4306 4094 3749 3535 3295
1 38 9 0 2 3 0 0 0 0 6 1 44 108 42 160 16 8 0 0 0 2 3 142 327 214 320 280 19 8 26 3 2 1 0 0 0 0 0 0 0 0 14 232 344 2666 5433 5385 5539 5631 6353 5859 5140 4908 4785 4678 4772 5049 5476 5631 5217 5811 5864 6012 5990 5924 5931 6036 6345 6314 6051 5767 5435 5312 5221 5064 4914 4817 4634 4374 4241 4161 3915 3505 3129 2830
59 8 12 41 5 3 0 6 0 0 0 35 67 308 163 95 97 84 46 115 256 115 143 1079 662 224 277 158 216 474 717 307 25 1 5 0 0 0 0 0 0 0 0 0 84 213 4577 5538 5387 5523 6269 5925 5337 5132 5505 5402 5276 5443 5806 5593 5367 5861 5807 6074 6119 6167 6291 6350 6352 6077 5722 5382 5094 5166 4734 4674 4586 4458 4253 4004 4004 4082 3754 3449 2904 2806
6 16 196 36 14 7 2 8 74 11 13 146 852 365 267 94 164 82 66 122 1094 1027 1250 794 866 884 880 1048 1320 1035 1020 536 348 0 0 0 0 0 0 0 0 0 0 0 0 119 4095 5341 5263 5708 6038 5938 5726 5641 5856 5656 5610 5738 5963 5940 5599 5652 5603 6059 6323 6311 6165 6143 6071 5799 5423 5080 4793 4990 4566 4340 4294 3843 3839 3692 3667 3433 3181 2920 2908 2652
0 8 16 13 75 69 51 26 24 126 92 342 528 428 225 236 93 108 145 122 2524 1968 1142 1335 1229 1036 1530 1644 1581 1301 950 448 269 564 190 11 29 5 7 48 39 6 0 0 0 108 4640 5547 5332 5966 6058 5839 5834 5840 6007 5849 5858 5740 5945 5932 5503 5545 5740 5847 6212 6168 6069 5715 5625 5281 4935 4759 4551 4313 4134 4178 3946 3817 3672 3374 3079 3061 2859 2636 2319 2161
28 10 2 5 44 16 84 43 67 24 238 897 504 246 267 78 113 106 95 292 1297 1472 1006 1146 1083 1282 1485 1533 1726 1465 1394 1231 872 584 163 39 29 0 544 1092 1420 738 516 76 1097 5318 6078 5884 5691 5847 5774 5634 5902 5975 5937 5817 5763 6017 5860 5902 5904 5741 5766 6049 6184 6070 5826 5421 4995 4948 4780 4687 4467 4051 3920 3816 3833 3470 3149 2904 2921 2702 2332 2183 1961 1762
19 10 12 1 0 35 46 49 31 26 223 468 128 203 113 162 162 212 1644 1020 1407 607 931 867 1106 1279 1501 1634 1802 1869 1727 1400 1028 682 327 117 521 911 124 1161 2109 1893 630 592 4356 5231 5312 5028 6052 5887 5800 5948 6023 5843 5770 5921 6014 6158 6040 5962 5906 5752 5662 5959 5896 5738 5568 5092 4808 4654 4471 4215 4125 3827 3571 3624 3501 3187 3089 2878 2618 2236 2127 1952 1822 1718
0 9 12 4 0 0 1 10 13 0 36 0 46 84 162 124 88 845 801 984 801 1020 1188 1257 1358 1740 1574 1588 1382 1363 1434 1400 1372 1257 1522 1645 1278 1306 1016 1321 2156 3564 4237 4757 5038 4690 4430 5345 5608 5465 5344 4853 5075 5297 5651 6010 6072 6064 5865 5766 5646 5606 5765 5600 5543 5381 5056 4670 4402 4080 4041 4105 3956 3550 3428 3432 3159 2973 2955 2706 2309 2042 1834 1718 1597 1593
267 8 5 5 8 3 0 0 1 0 75 142 343 327 1086 943 699 1110 842 764 594 768 877 1116 1543 1589 1673 1665 1834 1694 1528 1205 1825 2734 1965 1936 2220 1835 1862 2587 4740 4521 3968 3940 4299 4124 4398 5612 5460 4792 4688 4512 5188 5265 5517 5974 5782 5523 5346 5504 5436 5402 5208 5130 4943 4592 4159 3873 3961 3888 3681 3584 3440 3291 3316 3192 3076 2851 2606 2225 2043 1892 1691 1588 1519 1465
775 829 1078 829 13 1 2 2 246 751 631 421 448 941 870 844 659 488 597 438 329 535 679 907 1236 1507 1771 2418 2407 2071 1818 1700 2176 2375 2660 2968 3075 3071 3013 4412 4498 4198 3966 3912 3784 4411 4836 4783 5009 4861 4928 5041 5123 5336 5460 5467 5109 4905 5302 5222 4907 4577 4717 4512 4238 3913 3700 3588 3543 3384 3295 3286 3171 3012 3068 3032 2856 2543 2365 2234 1971 1680 1461 1365 1412 1360
114 518 694 976 1369 1107 909 832 682 724 596 400 305 320 228 203 167 331 434 466 356 593 977 1497 1769 1866 2005 2124 2311 2241 2038 2085 2525 2417 2401 2625 2546 2918 3456 3827 3951 3718 3732 3862 4074 4470 4442 4486 4600 4668 4628 4902 5359 5348 5230 5224 5273 4883 4779 4612 4320 4314 4177 4063 3857 3629 3486 3280 3159 3125 2995 2865 2773 2767 2802 2785 2494 2259 2074 1788 1675 1444 1310 1378 1301 1388
78 519 605 918 1230 1166 688 1110 948 993 719 240 190 200 185 58 266 419 500 526 513 1137 1605 1675 1623 1552 1598 1794 2001 1900 1901 1813 1731 2065 2052 1979 2400 2461 2318 2566 2686 3754 4090 4339 4626 4476 4451 4482 4290 4187 4400 4898 5176 4965 4558 4385 4306 4139 4276 4138 3912 3783 3794 3560 3506 3329 3234 3104 2836 2598 2510 2602 2530 2381 2243 2159 2217 2056 1826 1613 1619 1556 1394 1328 1331 1374
359 89 621 632 834 793 559 777 895 733 624 447 52 403 287 291 414 482 605 699 809 840 838 1088 931 1070 1047 1185 1316 1528 1708 1887 1691 2075 2284 2253 2330 2279 2200 2267 2444 2891 3213 4105 4111 4215 4101 4344 4316 4548 4680 4498 4452 4298 4174 3964 3685 3768 3759 3375 3167 3340 3284 3190 3126 3054 2809 2601 2543 2464 2298 2091 2093 2038 1932 1913 1877 1667 1589 1453 1408 1568 1600 1501 1520 1560
16 395 597 467 588 557 207 282 608 570 398 334 441 394 304 268 200 158 341 277 254 282 249 205 466 686 970 1052 1097 1279 1434 1599 1739 1862 2047 2249 2423 2372 2214 2267 2143 1771 2284 2749 2818 3300 4140 4010 3697 3688 3811 3717 3865 3703 3634 3594 3322 2913 3162 3266 3099 3013 2839 2714 2529 2506 2086 1900 1944 1964 1922 1990 1902 1716 1692 1340 1593 1542 1506 1346 1506 1660 1306 1195 1246 1286
420 488 223 309 240 447 477 434 633 528 319 267 272 176 131 100 47 48 18 1 0 1 7 4 29 564 798 890 776 807 956 1028 1126 966 921 1224 1594 1550 2073 1911 1854 2064 2193 1961 2204 2290 2752 2668 3000 3076 3109 3055 2899 3005 3210 3167 3022 3032 2971 3000 2895 2731 2558 2485 2332 2148 2000 2009 1816 1699 1648 1671 1448 1546 1302 1259 1431 1456 1417 1172 1150 1198 1171 1130 1066 1090
400 214 227 250 133 294 680 786 904 396 299 229 172 202 54 39 13 0 0 0 0 0 0 174 500 621 822 883 792 688 594 690 586 526 472 634 836 774 825 825 1382 1611 1491 1701 1783 1692 1924 2959 3254 3296 3256 3281 3187 3110 2974 3074 3095 3202 2907 2803 2776 2682 2671 2561 2322 1988 1872 1678 1554 1429 1258 1107 1291 1623 1871 1289 1302 1341 1318 1150 1102 1138 1073 1027 1004 950
Wind_Speed
nan nan nan nan nan nan nan nan nan nan nan nan nan nan nan nan nan nan nan nan nan nan nan nan nan nan nan nan nan 14 13 8 9 13 12 13 12 11 10 nan nan 7 6 6 7 6 7 7 5 2 5 3 6 5 9 9 9 8 6 7 7 5 8 9 8 8 8 8 8 7 9 8 7 5 4 5 4 4 3 3 7 9 8 10 11 12
nan nan nan nan nan nan nan nan nan nan nan nan nan nan nan nan nan nan nan nan nan nan nan nan nan nan nan nan nan 15 nan 8 7 10 12 14 12 10 10 9 7 6 5 7 6 7 8 7 9 6 6 5 7 7 10 10 10 9 8 8 9 7 7 10 10 9 8 7 7 8 7 7 6 6 4 3 3 2 5 9 10 9 11 11 13 13
nan nan nan nan nan nan nan nan nan nan nan nan nan nan nan nan nan nan nan nan nan nan nan nan nan nan nan nan nan 14 6 5 7 8 11 13 12 9 10 8 8 5 5 5 8 8 7 11 11 9 8 8 9 10 11 11 11 11 9 8 10 9 8 10 11 10 9 7 7 8 6 5 5 5 4 4 3 5 5 11 13 13 13 14 14 15
nan nan nan nan nan nan nan nan nan nan nan nan nan nan nan nan nan nan nan nan nan nan nan nan nan nan nan nan 20 14 10 5 6 8 10 14 11 10 10 9 8 6 5 5 7 9 8 9 8 9 9 9 10 11 11 13 13 12 10 10 11 12 10 9 11 11 9 8 7 7 6 6 4 6 6 6 7 6 8 11 16 15 15 17 17 17
nan nan nan nan nan nan nan nan nan nan nan nan nan nan nan nan nan nan nan nan nan nan nan nan nan nan nan nan nan 15 nan 10 10 7 8 12 13 11 10 10 9 5 6 5 6 7 7 7 8 8 8 9 10 11 12 14 14 12 14 13 13 13 12 10 12 12 10 9 7 7 6 5 6 7 7 9 8 8 10 12 17 18 16 15 14 16
nan nan nan nan nan nan nan nan nan nan nan nan nan nan nan nan nan nan nan nan nan nan nan nan nan nan nan nan nan nan nan 14 14 10 9 11 12 15 11 13 13 7 6 7 5 6 8 7 7 7 9 8 7 8 9 11 14 14 14 14 14 14 14 13 12 13 11 10 9 9 8 8 8 9 10 9 10 12 13 13 16 21 21 18 16 19
nan nan nan nan nan nan nan nan nan nan nan nan nan nan nan nan nan nan nan nan nan nan nan nan nan nan nan nan nan nan nan 14 18 12 9 12 13 15 13 13 13 10 9 10 6 4 8 8 8 9 10 10 9 8 9 9 11 13 13 14 15 14 14 14 14 14 12 11 10 10 10 9 11 11 11 11 11 13 15 16 16 21 20 19 19 17
nan nan nan nan nan nan nan nan nan nan nan nan nan nan nan nan nan nan nan nan nan nan nan nan nan nan nan nan nan nan nan nan 15 13 9 11 12 11 13 14 14 12 11 12 12 7 6 9 10 11 12 12 12 11 10 10 10 13 13 14 15 13 14 15 15 15 13 12 12 12 11 11 12 13 13 14 13 15 16 16 16 18 20 19 16 16
nan nan nan nan nan nan nan nan nan nan nan nan nan nan nan nan nan nan nan nan nan nan nan nan nan nan nan nan nan nan nan nan 16 16 11 11 13 12 11 15 16 12 13 13 16 13 9 9 9 11 13 14 13 13 12 11 12 13 13 14 14 14 14 14 16 16 15 13 13 13 12 13 13 14 15 15 15 16 16 16 16 17 20 18 16 14
nan nan nan nan nan nan nan nan nan nan nan nan nan nan nan nan nan nan nan nan nan nan nan nan nan nan nan nan nan nan nan nan nan 14 13 16 14 16 14 14 15 16 16 15 17 20 17 14 11 9 11 15 14 13 14 14 15 15 14 15 16 14 14 15 16 17 16 15 14 14 14 14 15 15 15 15 17 16 17 15 17 18 20 18 17 14
nan nan nan nan nan nan nan nan nan nan nan nan nan nan nan nan nan nan nan nan nan nan nan nan nan nan nan nan nan nan nan nan nan 17 nan 18 18 17 15 14 15 18 18 17 19 23 22 22 21 14 10 13 15 14 16 17 16 16 15 15 16 15 14 16 16 18 18 16 15 15 15 15 15 16 16 16 17 18 18 17 16 19 19 18 17 16
nan nan nan nan nan nan nan nan nan nan nan nan nan nan nan nan nan nan nan nan nan nan nan nan nan nan nan nan nan nan nan nan nan nan nan nan 18 18 18 15 17 20 18 17 19 22 25 25 23 21 15 15 17 15 17 18 18 17 17 17 17 16 16 16 17 18 18 17 16 16 17 16 16 17 16 17 16 18 18 18 17 19 19 16 17 16
nan nan nan nan nan nan nan nan nan nan nan nan nan nan nan nan nan nan nan nan nan nan nan nan nan nan nan nan nan nan nan nan nan nan nan nan 18 19 18 18 20 20 17 16 20 20 23 23 21 19 17 17 18 18 18 19 20 19 20 20 19 18 17 16 17 18 18 17 17 17 17 17 17 17 17 17 17 17 18 19 18 19 18 18 18 17
nan nan nan nan nan nan nan nan nan nan nan nan nan nan nan nan nan nan nan nan nan nan nan nan nan nan nan nan nan nan nan nan nan nan nan nan nan 19 23 19 17 19 18 16 17 16 18 19 18 14 12 15 16 19 19 20 20 19 20 22 21 20 18 17 17 19 19 18 18 18 18 18 17 17 17 17 18 18 17 19 18 18 18 20 19 20
nan nan nan nan nan nan nan nan nan nan nan nan nan nan nan nan nan nan nan nan nan nan nan nan nan nan nan nan nan nan nan nan nan nan 19 24 nan 20 23 16 15 18 19 18 15 14 14 17 20 15 11 12 15 18 19 19 19 20 20 21 22 21 19 18 18 19 20 19 19 18 18 18 18 18 18 18 18 18 18 18 18 18 19 20 21 22
nan nan nan nan nan nan nan nan nan nan nan nan nan nan nan nan nan nan nan nan nan nan nan nan nan nan nan nan nan nan nan nan nan nan nan nan 16 nan 19 20 16 16 17 17 14 13 13 16 18 15 11 12 13 17 17 18 17 18 19 20 22 21 21 20 19 19 20 20 19 19 18 18 19 19 19 18 19 18 19 19 19 19 19 21 22 22
nan nan nan nan nan nan nan nan nan nan nan nan nan nan nan nan nan nan nan nan nan nan nan nan nan nan nan nan nan nan nan nan nan nan nan nan nan nan 15 23 19 15 13 13 12 10 10 11 11 13 13 13 15 17 18 17 18 18 19 19 20 20 19 19 19 19 21 20 19 19 19 19 19 21 21 20 21 19 19 19 20 20 19 21 22 22
nan nan nan nan nan nan nan nan nan nan nan nan nan nan nan nan nan nan nan nan nan nan nan nan nan nan nan nan nan nan nan nan nan nan nan nan nan nan 16 25 23 19 14 13 12 11 12 11 10 12 13 16 17 19 19 19 18 17 18 19 19 19 18 17 17 18 20 20 20 19 20 20 20 21 22 21 21 19 19 19 20 20 20 21 21 23
nan nan nan nan nan nan nan nan nan nan nan nan nan nan nan nan nan nan nan nan nan nan nan nan nan nan nan nan nan nan nan nan nan nan nan nan nan nan 14 23 29 23 16 16 15 17 18 13 8 9 11 14 14 16 18 19 20 18 17 18 19 20 19 18 17 17 17 19 19 19 19 20 21 22 22 21 20 20 18 19 20 20 21 21 21 24
nan nan nan nan nan nan nan nan nan nan nan nan nan nan nan nan nan nan nan nan nan nan nan nan nan nan nan nan nan nan nan nan nan nan nan nan nan nan nan 19 28 26 18 23 21 20 20 16 9 8 8 10 13 15 17 20 21 25 22 20 20 19 18 17 17 17 18 19 18 18 19 19 20 20 20 19 19 19 18 18 19 21 22 23 23 24
nan nan nan nan nan nan nan nan nan nan nan nan nan nan nan nan nan nan nan nan nan nan nan nan nan nan nan nan nan nan 20 nan nan nan nan nan nan nan nan 12 28 32 27 28 28 24 22 17 13 8 4 5 8 11 15 17 22 24 24 24 24 22 22 21 19 18 17 18 18 19 19 19 18 18 18 17 16 17 18 18 19 20 20 23 24 25
nan nan nan nan nan nan nan nan nan nan nan nan nan nan nan nan nan nan nan nan nan nan nan nan nan nan nan nan nan nan 24 nan nan nan nan nan nan nan nan 17 32 37 32 29 32 29 24 23 21 16 10 5 4 11 17 19 19 22 25 26 26 24 22 22 19 17 18 17 17 18 18 18 17 16 15 15 15 16 18 20 19 20 21 24 24 25
nan nan nan nan nan nan nan nan nan nan nan nan nan nan nan nan nan nan nan nan nan nan nan nan nan nan nan 23 nan nan nan nan nan nan nan nan nan nan nan 13 30 30 28 31 33 31 25 22 22 20 13 7 5 7 14 18 19 20 24 27 26 26 24 22 20 18 17 17 16 17 17 17 16 16 16 17 16 18 19 21 21 22 23 24 24 24
nan nan nan nan nan nan nan nan nan nan nan nan nan nan nan nan nan nan nan nan nan nan nan nan nan nan nan 30 22 nan 25 nan nan nan 18 nan nan nan nan nan 26 28 30 34 32 27 23 21 21 22 18 13 7 7 13 15 16 18 21 25 27 28 26 22 19 18 18 17 16 17 17 17 16 18 19 19 18 20 21 21 22 22 23 23 23 25
nan nan nan nan nan nan nan nan nan nan nan nan nan nan nan nan nan nan nan nan nan nan nan nan nan nan nan nan 27 22 nan nan nan nan nan nan nan nan nan 23 29 31 34 36 29 26 24 22 20 19 19 17 11 9 11 13 17 18 19 23 26 28 27 22 18 17 18 19 19 18 17 17 18 19 20 21 20 22 22 21 21 20 22 23 23 25
nan nan nan nan nan nan nan nan nan nan nan nan nan nan nan nan nan nan nan nan nan nan nan nan nan nan nan nan nan nan nan 18 nan nan nan nan 22 22 25 29 35 34 37 32 27 26 25 23 20 21 21 18 13 9 9 14 18 18 18 20 23 26 25 23 19 17 18 19 18 17 19 18 19 21 22 21 19 20 19 19 19 20 21 24 26 27
nan nan nan nan nan nan nan nan nan nan nan nan nan nan nan nan nan nan nan nan nan nan nan nan nan nan 21 nan 21 nan nan nan 28 nan nan 21 23 28 33 34 31 33 38 34 27 25 28 27 23 23 22 19 14 9 10 14 18 18 17 18 21 22 24 23 19 17 18 20 19 18 19 19 19 19 20 19 16 15 17 19 20 21 22 24 27 29
nan nan nan nan nan nan nan nan nan nan nan nan nan nan nan nan nan nan nan nan nan nan nan nan 39 nan nan nan 21 22 nan nan 21 32 nan 22 33 31 26 32 36 34 38 35 29 29 29 29 30 28 25 21 16 12 12 14 17 17 17 18 19 22 24 24 22 18 18 19 18 17 19 19 19 18 17 16 16 16 16 18 19 19 20 23 25 29
nan nan nan nan nan nan nan nan nan nan nan nan nan nan nan nan nan nan nan nan nan nan nan nan 38 36 nan nan nan nan 24 18 nan nan nan nan 24 28 35 37 40 39 41 34 28 29 31 34 34 33 30 25 20 16 14 15 16 16 16 17 17 20 23 25 24 20 18 19 17 17 19 18 17 15 15 16 16 16 16 18 19 21 23 24 26 28
nan nan nan nan nan nan nan nan nan nan nan nan nan nan nan nan nan nan nan nan nan nan nan nan 42 nan nan nan nan nan nan nan nan 36 nan 32 nan 23 35 35 32 39 41 37 32 31 33 36 39 37 35 31 25 20 17 17 17 16 16 17 19 19 22 25 24 20 18 19 18 18 19 18 16 14 14 15 16 17 18 19 21 23 26 28 30 31
nan nan nan nan nan nan nan nan nan nan nan nan nan nan nan nan nan nan nan nan nan nan nan nan nan nan nan nan nan nan nan nan nan nan nan nan nan nan 22 27 24 27 32 30 31 32 34 38 40 39 36 34 30 24 18 18 18 18 16 18 19 20 23 26 24 20 18 18 18 19 19 17 16 15 16 17 17 18 20 21 23 25 28 30 34 35
nan nan nan nan nan nan nan nan nan nan nan nan nan nan nan nan nan nan nan nan nan nan nan nan nan nan nan nan nan nan nan nan nan nan nan 25 25 25 21 nan nan 32 31 30 30 33 36 36 39 38 36 34 33 27 22 20 20 19 17 19 19 21 24 26 24 22 20 20 19 19 18 18 18 18 19 19 19 21 22 24 26 28 30 32 36 38
nan nan nan nan nan nan nan nan nan nan nan nan nan nan nan nan nan nan nan nan nan nan nan nan nan nan nan nan nan nan nan nan nan nan nan nan 30 26 24 29 nan 31 33 35 33 30 34 35 37 37 36 35 32 29 24 23 21 18 18 20 20 21 24 26 25 22 22 21 19 19 19 20 20 20 20 22 23 25 27 29 30 31 33 34 35 38
nan nan nan nan nan nan nan nan nan nan nan nan nan nan nan nan nan nan nan nan nan nan nan nan nan nan nan nan nan nan nan nan 30 35 42 46 44 42 35 28 25 nan 34 38 35 30 30 34 36 37 36 35 33 28 27 27 22 19 19 22 22 21 24 26 24 22 22 22 21 22 22 22 22 21 23 25 27 29 29 31 32 33 34 35 37 39
nan nan nan nan nan nan nan nan nan nan nan nan nan nan nan nan nan nan nan nan nan nan nan nan nan nan nan nan nan nan nan 40 38 nan nan nan 44 45 40 30 27 27 29 41 40 36 32 29 32 35 36 36 34 33 33 31 27 24 22 23 22 22 26 26 22 21 22 23 23 24 25 24 24 24 26 28 29 30 30 32 34 35 37 38 39 41
nan nan nan nan nan nan nan nan nan nan nan nan nan nan nan nan nan nan nan nan nan nan nan 42 nan 40 31 nan nan nan nan nan nan nan nan nan nan nan nan nan nan nan 35 39 43 41 39 33 29 30 33 37 41 37 34 34 30 25 23 24 24 24 28 26 22 22 23 24 25 26 27 28 28 29 30 31 31 31 33 34 36 37 39 40 41 42
nan nan nan nan nan nan nan nan nan nan nan nan nan 27 nan 35 nan nan nan nan nan nan nan 52 46 41 51 43 nan nan nan nan nan nan nan nan nan nan nan nan nan nan nan 44 41 46 47 44 35 32 36 40 40 39 38 39 36 28 26 26 26 27 30 28 24 24 25 25 27 28 30 31 31 33 35 35 35 35 35 35 37 39 41 41 42 44
nan nan nan nan nan nan nan nan nan nan nan nan nan 42 45 nan nan nan nan 44 44 51 57 57 54 54 52 40 43 46 42 29 nan nan nan nan nan nan nan nan nan nan nan nan nan 45 51 51 45 41 41 42 40 41 43 44 41 33 28 28 29 30 30 29 26 26 27 27 29 31 32 33 35 37 39 39 39 39 38 38 39 41 43 43 45 46
nan nan 36 nan nan nan nan nan nan nan nan 42 43 43 47 nan 43 nan nan 35 45 52 59 54 54 56 49 49 52 52 44 42 40 nan nan nan nan nan nan nan nan nan nan nan nan 37 48 53 51 46 43 43 42 43 44 46 45 38 30 29 32 31 30 30 30 30 30 30 32 34 35 38 39 41 42 42 42 42 43 42 43 44 46 45 46 47
nan nan nan nan nan nan nan nan nan 41 nan 43 45 39 43 41 nan 43 36 33 45 45 47 49 56 55 52 49 51 48 46 42 40 34 24 nan nan nan nan nan nan nan nan nan nan 26 46 56 54 47 43 42 40 41 45 47 47 40 32 31 34 32 31 32 33 34 34 34 35 37 39 42 43 44 44 45 47 46 46 47 46 48 48 47 48 50
nan nan nan nan nan nan nan nan nan nan 41 41 37 44 46 nan 41 38 nan 46 46 44 39 42 46 54 51 47 47 47 48 45 42 37 34 nan nan nan 23 34 37 37 39 nan 35 49 55 58 51 42 40 41 41 44 47 49 48 42 34 34 34 33 35 37 37 37 38 40 41 42 44 45 47 48 47 48 49 50 49 49 49 51 51 51 50 52
nan nan nan nan nan nan nan nan nan nan 42 41 40 37 47 45 40 36 49 46 42 42 40 37 43 48 47 44 44 46 47 46 42 40 42 36 33 36 27 36 44 49 34 34 43 44 53 51 44 39 42 44 44 47 49 50 48 42 37 34 35 38 40 40 40 41 44 44 46 47 48 49 50 50 49 51 53 52 51 51 52 52 53 51 51 53
nan nan nan nan nan nan nan nan nan nan nan nan nan nan 45 39 nan 53 49 47 48 46 47 46 44 47 47 43 42 41 43 47 44 43 45 46 42 46 42 41 43 50 51 49 47 52 50 45 36 36 40 41 43 46 49 49 46 41 38 36 40 42 44 44 43 46 47 48 49 50 51 53 54 52 52 56 57 57 56 55 55 54 55 53 51 52
51 nan nan nan nan nan nan nan nan nan nan 41 47 45 54 54 52 49 45 43 51 50 48 45 48 48 46 45 44 41 41 39 42 41 39 44 50 51 47 38 42 50 48 49 47 43 46 42 38 37 39 42 47 47 47 47 44 42 40 42 45 47 47 47 48 49 51 51 52 53 54 55 55 55 57 60 61 64 65 60 56 54 54 52 51 51
60 62 61 58 nan nan nan nan 47 46 43 44 45 52 51 54 53 51 45 49 49 45 45 44 46 47 49 52 50 47 43 45 43 45 50 50 50 47 42 40 40 46 48 45 42 45 43 39 38 43 45 49 50 50 48 46 45 45 47 47 48 49 49 50 52 53 54 54 54 55 56 56 57 58 60 63 67 69 67 62 57 54 52 51 50 49
54 62 59 51 60 66 70 66 60 56 56 57 55 49 52 50 50 48 50 48 44 42 44 45 47 50 52 53 52 50 51 51 52 54 53 50 47 47 43 35 37 44 44 43 45 48 46 42 45 49 51 53 55 54 51 49 50 51 51 49 48 49 51 53 55 55 56 56 56 57 58 60 61 61 63 66 67 67 66 63 57 51 50 50 48 48
nan 61 59 54 55 55 58 64 69 70 61 53 52 61 61 nan 53 48 46 45 47 49 47 48 49 52 52 51 51 51 53 55 55 52 49 46 47 50 47 41 37 41 47 45 47 47 45 42 44 50 53 57 57 57 56 55 53 52 50 49 50 51 53 55 56 56 56 57 57 58 59 61 61 63 64 63 61 61 63 64 58 51 49 50 49 49
47 nan 55 56 58 60 55 57 66 68 70 67 nan 60 64 63 59 54 50 48 49 50 50 50 52 55 53 52 51 51 51 54 56 54 49 47 47 47 46 47 52 57 54 49 49 52 51 49 53 57 57 58 55 53 55 55 53 50 50 51 53 55 56 56 56 56 57 58 58 59 61 62 65 64 62 60 58 60 62 62 59 55 54 52 51 51
nan 53 56 58 57 58 57 51 56 70 73 73 71 65 60 57 57 59 57 55 53 54 54 54 53 53 53 54 55 56 56 55 55 52 48 47 49 47 46 49 50 54 54 61 64 60 54 50 51 50 51 55 56 57 56 55 53 53 54 56 56 56 57 56 57 57 59 58 59 59 60 61 62 62 61 62 61 60 59 57 56 58 58 54 52 51
46 54 58 56 57 53 54 52 55 58 62 67 68 64 61 59 nan nan nan nan nan nan nan nan nan 52 53 53 55 56 57 53 52 51 49 45 46 45 45 48 53 55 56 53 57 58 57 52 46 45 47 51 55 56 57 58 58 58 58 57 57 57 58 57 56 57 57 57 58 59 59 60 61 60 60 63 63 64 65 67 65 60 60 58 55 56
53 55 55 56 51 49 57 57 55 60 63 62 57 54 nan nan nan nan nan nan nan nan nan 51 50 50 51 53 54 55 51 48 51 53 50 45 41 37 39 41 48 53 49 45 45 45 42 40 40 41 43 45 48 51 54 55 58 59 58 57 57 57 58 57 56 56 57 56 57 58 59 59 59 59 57 62 65 66 69 67 66 66 64 61 55 58
Wind_Direction
nan nan nan nan nan nan nan nan nan nan nan nan nan nan nan nan nan nan nan nan nan nan nan nan nan nan nan nan nan 294 291 291 304 306 307 309 314 321 323 nan nan 319 351 338 350 10 348 357 326 322 298 310 307 288 288 291 300 305 309 299 316 304 307 302 312 316 326 330 329 338 349 353 351 352 2 8 21 30 319 313 307 321 329 335 330 336
nan nan nan nan nan nan nan nan nan nan nan nan nan nan nan nan nan nan nan nan nan nan nan nan nan nan nan nan nan 256 nan 301 314 307 306 306 313 310 314 321 319 308 313 337 336 0 352 343 338 328 289 316 312 295 298 305 306 305 316 307 303 303 298 302 309 309 316 319 323 326 335 346 343 331 344 348 339 355 318 304 298 318 319 328 325 334
nan nan nan nan nan nan nan nan nan nan nan nan nan nan nan nan nan nan nan nan nan nan nan nan nan nan nan nan nan 290 315 296 309 300 299 291 297 285 295 311 304 316 312 331 331 350 354 348 347 324 310 319 326 320 315 307 306 309 312 301 298 301 298 298 305 302 308 311 317 318 317 335 313 310 316 318 306 305 312 305 306 315 320 316 322 328
nan nan nan nan nan nan nan nan nan nan nan nan nan nan nan nan nan nan nan nan nan nan nan nan nan nan nan nan 293 297 299 301 300 309 303 296 292 281 298 295 291 320 301 316 322 346 355 343 342 321 315 316 325 319 318 315 317 307 306 306 302 302 302 297 297 299 303 307 305 307 305 313 298 285 289 290 290 298 308 307 309 310 318 320 323 320
nan nan nan nan nan nan nan nan nan nan nan nan nan nan nan nan nan nan nan nan nan nan nan nan nan nan nan nan nan 290 nan 305 300 299 295 290 295 293 296 296 288 297 278 303 321 324 349 341 345 323 320 327 335 329 325 320 320 308 318 312 307 297 301 295 289 297 293 293 294 290 285 275 283 265 268 279 288 295 299 304 301 300 301 297 293 284
nan nan nan nan nan nan nan nan nan nan nan nan nan nan nan nan nan nan nan nan nan nan nan nan nan nan nan nan nan nan nan 287 284 290 283 268 278 281 290 290 290 301 285 280 300 316 339 346 326 321 320 333 335 327 321 321 324 315 313 312 307 295 295 296 297 298 291 288 289 288 290 289 277 281 287 292 296 301 300 308 309 307 309 309 306 313
nan nan nan nan nan nan nan nan nan nan nan nan nan nan nan nan nan nan nan nan nan nan nan nan nan nan nan nan nan nan nan 268 268 270 278 270 261 284 285 286 296 305 296 291 296 311 337 332 339 330 319 330 333 318 312 321 323 320 313 313 309 301 295 297 298 302 290 288 288 293 292 285 286 287 287 286 292 295 297 303 306 306 310 315 317 319
nan nan nan nan nan nan nan nan nan nan nan nan nan nan nan nan nan nan nan nan nan nan nan nan nan nan nan nan nan nan nan nan 263 261 251 268 270 280 289 296 281 288 290 288 298 302 315 324 337 335 320 318 326 315 318 320 315 316 312 315 313 304 302 300 299 304 298 294 293 295 294 291 291 294 294 300 299 295 299 303 310 309 311 316 314 310
nan nan nan nan nan nan nan nan nan nan nan nan nan nan nan nan nan nan nan nan nan nan nan nan nan nan nan nan nan nan nan nan 275 280 283 271 283 279 274 285 286 289 288 289 290 302 300 302 321 311 308 314 316 314 314 310 305 305 308 311 311 311 305 302 306 305 305 298 297 297 293 290 289 292 293 295 298 300 302 306 308 302 301 303 305 310
nan nan nan nan nan nan nan nan nan nan nan nan nan nan nan nan nan nan nan nan nan nan nan nan nan nan nan nan nan nan nan nan nan 285 294 292 286 281 272 268 286 288 280 297 300 297 297 291 290 294 297 308 312 305 300 299 297 301 301 308 311 311 301 299 304 303 306 307 297 295 293 295 290 289 291 294 299 301 299 302 298 296 297 302 304 308
nan nan nan nan nan nan nan nan nan nan nan nan nan nan nan nan nan nan nan nan nan nan nan nan nan nan nan nan nan nan nan nan nan 276 nan 270 282 279 275 286 284 282 287 290 294 294 297 297 293 290 301 301 305 299 297 298 297 298 300 303 307 306 296 299 304 305 306 304 298 292 295 298 295 296 295 298 300 301 301 301 297 295 296 300 307 311
nan nan nan nan nan nan nan nan nan nan nan nan nan nan nan nan nan nan nan nan nan nan nan nan nan nan nan nan nan nan nan nan nan nan nan nan 283 275 272 291 290 279 268 275 286 291 297 296 303 312 315 308 309 303 299 298 293 294 295 297 301 300 300 297 302 305 303 299 296 293 295 298 295 295 296 302 302 303 303 301 299 295 295 301 306 316
nan nan nan nan nan nan nan nan nan nan nan nan nan nan nan nan nan nan nan nan nan nan nan nan nan nan nan nan nan nan nan nan nan nan nan nan 289 282 287 286 276 278 294 284 277 281 294 308 318 317 319 318 315 311 307 306 306 299 298 302 302 301 298 295 299 303 302 299 296 293 294 294 292 295 298 301 302 300 300 299 299 297 300 305 310 318
nan nan nan nan nan nan nan nan nan nan nan nan nan nan nan nan nan nan nan nan nan nan nan nan nan nan nan nan nan nan nan nan nan nan nan nan nan 282 278 277 288 292 289 282 282 294 302 311 314 320 327 334 331 325 319 310 307 300 298 302 303 300 296 290 293 296 296 298 294 293 291 290 290 294 298 298 301 300 299 298 299 298 302 307 314 317
nan nan nan nan nan nan nan nan nan nan nan nan nan nan nan nan nan nan nan nan nan nan nan nan nan nan nan nan nan nan nan nan nan nan 260 273 nan 261 279 283 292 293 286 276 278 301 311 315 315 317 324 338 342 339 335 321 314 304 300 299 300 296 296 290 290 287 293 290 292 291 289 289 288 293 296 298 298 301 302 297 297 297 302 309 314 319
nan nan nan nan nan nan nan nan nan nan nan nan nan nan nan nan nan nan nan nan nan nan nan nan nan nan nan nan nan nan nan nan nan nan nan nan 261 nan 284 292 293 298 298 292 285 300 314 309 317 326 329 338 344 346 346 340 327 318 309 304 304 302 299 294 292 289 290 289 287 292 293 292 292 289 294 295 298 300 302 298 296 299 303 309 313 320
nan nan nan nan nan nan nan nan nan nan nan nan nan nan nan nan nan nan nan nan nan nan nan nan nan nan nan nan nan nan nan nan nan nan nan nan nan nan 256 282 288 293 298 292 291 285 290 292 310 321 330 339 348 351 357 349 340 335 324 318 315 310 304 302 298 293 290 288 288 291 291 289 290 295 297 299 305 309 300 297 296 299 307 311 314 320
nan nan nan nan nan nan nan nan nan nan nan nan nan nan nan nan nan nan nan nan nan nan nan nan nan nan nan nan nan nan nan nan nan nan nan nan nan nan 257 290 291 297 295 287 275 268 267 279 306 326 338 354 357 356 353 351 343 340 335 332 325 320 318 311 305 298 292 291 289 286 288 289 290 291 297 301 304 302 299 295 298 302 310 318 316 321
nan nan nan nan nan nan nan nan nan nan nan nan nan nan nan nan nan nan nan nan nan nan nan nan nan nan nan nan nan nan nan nan nan nan nan nan nan nan 264 293 291 299 295 282 275 263 268 274 281 308 346 0 354 347 346 344 341 341 340 338 336 331 328 322 313 305 294 294 286 284 289 291 290 289 295 299 299 300 303 306 305 313 315 319 320 321
nan nan nan nan nan nan nan nan nan nan nan nan nan nan nan nan nan nan nan nan nan nan nan nan nan nan nan nan nan nan nan nan nan nan nan nan nan nan nan 290 295 301 297 303 296 276 281 295 308 330 351 0 352 337 337 344 345 353 348 340 340 335 327 323 320 310 307 305 299 295 294 296 293 295 297 298 299 303 308 309 313 319 321 322 322 325
nan nan nan nan nan nan nan nan nan nan nan nan nan nan nan nan nan nan nan nan nan nan nan nan nan nan nan nan nan nan 260 nan nan nan nan nan nan nan nan 289 287 284 291 303 300 284 276 278 285 288 306 357 344 319 328 341 351 353 350 347 345 339 338 337 330 320 313 309 311 309 311 309 306 309 304 306 309 309 311 313 316 321 321 319 328 328
nan nan nan nan nan nan nan nan nan nan nan nan nan nan nan nan nan nan nan nan nan nan nan nan nan nan nan nan nan nan 239 nan nan nan nan nan nan nan nan 207 257 265 277 289 292 286 269 259 268 265 257 266 341 338 341 341 344 351 351 347 347 345 342 339 331 319 313 312 315 320 319 320 317 317 312 317 318 319 317 318 321 321 321 324 328 330
nan nan nan nan nan nan nan nan nan nan nan nan nan nan nan nan nan nan nan nan nan nan nan nan nan nan nan 236 nan nan nan nan nan nan nan nan nan nan nan 200 260 273 284 282 285 283 269 263 273 273 277 299 359 334 331 329 339 347 346 342 344 345 343 338 331 321 308 312 315 320 319 321 323 322 323 327 323 331 329 324 323 322 324 322 324 327
nan nan nan nan nan nan nan nan nan nan nan nan nan nan nan nan nan nan nan nan nan nan nan nan nan nan nan 209 211 nan 210 nan nan nan 252 nan nan nan nan nan 266 265 275 274 277 281 267 262 267 271 286 309 327 312 317 317 324 336 338 338 340 345 341 335 328 325 315 315 317 321 320 324 321 328 331 335 330 335 337 331 326 325 326 324 320 324
nan nan nan nan nan nan nan nan nan nan nan nan nan nan nan nan nan nan nan nan nan nan nan nan nan nan nan nan 226 210 nan nan nan nan nan nan nan nan nan 239 259 259 265 272 282 289 272 267 269 272 285 301 316 309 303 309 314 325 331 333 336 339 339 331 322 327 323 321 326 327 324 325 323 327 331 335 335 341 339 335 332 329 329 323 323 322
nan nan nan nan nan nan nan nan nan nan nan nan nan nan nan nan nan nan nan nan nan nan nan nan nan nan nan nan nan nan nan 239 nan nan nan nan 202 228 227 248 253 254 261 268 277 280 272 261 261 267 276 286 303 309 307 305 306 316 323 328 328 330 331 329 323 324 321 321 324 324 325 323 324 332 334 335 339 343 339 334 329 331 326 322 322 321
nan nan nan nan nan nan nan nan nan nan nan nan nan nan nan nan nan nan nan nan nan nan nan nan nan nan 223 nan 272 nan nan nan 264 nan nan 189 210 218 208 227 238 254 263 272 271 269 262 256 258 266 272 280 291 289 290 302 299 307 311 319 323 318 323 324 320 313 315 320 324 319 321 321 324 327 330 331 335 335 330 330 332 332 328 322 325 327
nan nan nan nan nan nan nan nan nan nan nan nan nan nan nan nan nan nan nan nan nan nan nan nan 228 nan nan nan 227 246 nan nan 224 256 nan 205 199 216 218 216 241 247 255 256 248 248 252 253 260 264 267 270 272 271 276 290 291 297 303 309 310 310 317 318 318 311 310 311 313 314 316 315 319 324 327 329 329 327 322 321 321 322 317 318 326 332
nan nan nan nan nan nan nan nan nan nan nan nan nan nan nan nan nan nan nan nan nan nan nan nan 244 234 nan nan nan nan 237 231 nan nan nan nan 218 220 224 227 234 243 256 260 250 248 251 252 256 262 264 265 268 268 272 279 282 284 292 298 301 306 313 314 314 311 308 307 309 308 306 306 311 317 322 324 323 324 323 321 320 318 318 323 329 329
nan nan nan nan nan nan nan nan nan nan nan nan nan nan nan nan nan nan nan nan nan nan nan nan 240 nan nan nan nan nan nan nan nan 239 nan 256 nan 233 238 240 231 235 243 249 246 249 251 250 252 258 263 264 272 271 266 269 275 286 290 297 301 299 303 307 309 306 304 306 303 298 298 302 305 311 313 315 320 326 326 324 324 323 325 327 330 327
nan nan nan nan nan nan nan nan nan nan nan nan nan nan nan nan nan nan nan nan nan nan nan nan nan nan nan nan nan nan nan nan nan nan nan nan nan nan 235 243 257 261 249 248 252 252 247 246 250 257 263 268 273 273 265 262 270 276 291 291 299 297 298 304 304 300 299 300 294 291 292 294 299 302 307 310 314 319 323 325 323 323 326 325 326 327
nan nan nan nan nan nan nan nan nan nan nan nan nan nan nan nan nan nan nan nan nan nan nan nan nan nan nan nan nan nan nan nan nan nan nan 234 257 260 253 nan nan 259 262 256 254 256 254 253 253 258 263 269 271 272 262 256 262 273 284 288 294 296 294 300 301 300 295 292 286 286 290 290 295 300 305 307 313 315 318 318 318 320 321 322 323 324
nan nan nan nan nan nan nan nan nan nan nan nan nan nan nan nan nan nan nan nan nan nan nan nan nan nan nan nan nan nan nan nan nan nan nan nan 230 239 251 254 nan 254 264 260 258 254 257 259 258 260 264 265 267 268 269 263 262 272 280 284 286 287 288 294 298 296 291 288 286 285 286 290 296 302 307 311 312 312 313 315 316 317 319 321 318 318
nan nan nan nan nan nan nan nan nan nan nan nan nan nan nan nan nan nan nan nan nan nan nan nan nan nan nan nan nan nan nan nan 238 239 225 219 220 229 230 247 254 nan 249 262 265 258 248 246 249 254 260 262 265 272 268 265 266 265 267 268 272 280 278 287 292 292 288 284 284 283 287 292 298 302 308 310 310 311 312 314 315 314 313 313 314 317
nan nan nan nan nan nan nan nan nan nan nan nan nan nan nan nan nan nan nan nan nan nan nan nan nan nan nan nan nan nan nan 217 220 nan nan nan 216 223 230 229 240 248 239 243 261 265 261 253 253 254 255 259 266 263 261 261 262 261 264 266 271 274 273 281 286 286 287 287 287 290 292 294 296 302 306 308 309 309 310 309 308 309 308 308 310 312
nan nan nan nan nan nan nan nan nan nan nan nan nan nan nan nan nan nan nan nan nan nan nan 218 nan 219 240 nan nan nan nan nan nan nan nan nan nan nan nan nan nan nan 240 242 253 265 271 271 267 267 261 257 259 265 265 264 267 270 268 268 270 267 270 274 279 283 287 293 295 298 299 298 299 301 303 304 305 306 305 305 306 305 304 307 309 311
nan nan nan nan nan nan nan nan nan nan nan nan nan 222 nan 225 nan nan nan nan nan nan nan 209 206 209 220 217 nan nan nan nan nan nan nan nan nan nan nan nan nan nan nan 244 248 259 271 272 269 270 265 259 263 269 268 265 267 266 266 270 268 264 268 272 276 283 288 294 296 298 300 299 299 298 298 299 299 301 302 301 302 303 303 307 308 309
nan nan nan nan nan nan nan nan nan nan nan nan nan 234 233 nan nan nan nan 226 219 209 212 213 211 212 209 207 215 223 216 231 nan nan nan nan nan nan nan nan nan nan nan nan nan 251 265 269 264 264 269 266 265 269 265 263 263 263 264 268 265 265 269 271 275 281 286 291 293 294 295 295 294 294 294 294 297 298 299 300 301 302 302 306 308 309
nan nan 199 nan nan nan nan nan nan nan nan 233 237 235 234 nan 227 nan nan 226 230 220 222 219 215 212 213 214 215 216 219 220 230 nan nan nan nan nan nan nan nan nan nan nan nan 246 263 265 263 258 263 264 263 264 264 262 263 264 265 265 267 265 269 272 275 280 283 286 287 288 289 289 290 291 293 295 296 297 298 299 297 296 297 302 303 304
nan nan nan nan nan nan nan nan nan 228 nan 237 240 237 235 230 nan 231 227 230 231 222 224 224 218 215 214 216 215 215 218 218 219 219 209 nan nan nan nan nan nan nan nan nan nan 239 255 259 256 255 257 261 258 260 260 259 261 264 263 263 266 267 268 273 274 276 277 282 283 283 285 285 287 289 293 294 294 294 294 294 294 294 295 297 299 299
nan nan nan nan nan nan nan nan nan nan 228 238 234 235 236 nan 236 232 nan 232 227 221 222 221 216 217 218 219 222 221 220 221 219 204 188 nan nan nan 227 230 223 225 233 nan 234 241 246 252 255 253 249 249 250 250 253 256 259 259 257 259 262 265 267 267 268 272 274 276 279 279 281 280 283 286 288 289 289 288 288 290 291 291 292 294 295 296
nan nan nan nan nan nan nan nan nan nan 225 235 238 236 237 235 236 231 230 231 229 224 219 212 210 213 218 221 225 227 222 217 216 214 202 194 202 218 222 227 228 219 219 232 242 246 245 249 247 241 236 238 245 247 250 254 256 256 254 256 260 263 264 267 269 270 271 274 276 277 278 278 278 281 284 285 284 283 281 283 285 288 290 290 292 295
nan nan nan nan nan nan nan nan nan nan nan nan nan nan 242 233 nan 232 231 228 228 225 220 216 214 216 216 216 217 219 218 218 217 215 218 223 224 220 224 230 233 235 228 239 242 240 244 245 245 238 234 237 242 242 245 251 253 252 253 255 258 260 263 266 267 269 270 271 273 273 274 275 278 279 280 281 280 279 278 278 282 286 288 288 292 295
202 nan nan nan nan nan nan nan nan nan nan 234 240 235 233 232 232 230 228 231 233 229 226 224 224 220 215 213 212 212 214 218 222 219 226 230 232 236 234 224 234 240 240 236 237 237 239 239 234 228 225 230 232 234 240 244 247 249 251 255 256 259 263 265 266 266 267 267 269 272 274 277 278 279 281 282 281 279 278 278 281 284 288 289 292 295
206 207 211 215 nan nan nan nan 229 230 232 237 236 244 244 239 231 227 229 233 233 232 232 230 225 222 219 216 214 213 213 215 218 222 226 230 230 233 241 236 229 238 243 244 239 232 229 229 225 220 220 223 228 230 236 240 246 248 251 252 256 262 266 266 265 266 267 269 271 273 275 276 277 279 281 281 281 281 281 283 284 284 286 289 292 297
190 200 206 212 218 225 229 225 227 232 230 233 238 239 241 240 235 230 231 235 237 235 234 230 231 230 228 226 223 222 221 219 218 218 222 224 225 226 224 226 228 232 237 237 236 234 227 219 217 218 221 225 227 228 231 236 241 247 249 252 257 261 263 263 264 265 268 270 272 274 275 276 276 278 279 279 282 286 290 293 293 288 286 290 295 298
nan 201 206 214 210 211 220 212 223 221 224 240 237 236 237 nan 240 238 236 235 237 239 237 236 236 234 234 231 229 227 225 223 222 221 221 225 226 226 225 213 211 223 231 229 232 230 223 216 215 219 223 226 228 230 233 237 240 244 248 252 257 259 258 260 262 264 266 268 271 272 273 274 274 274 275 279 285 291 294 299 301 297 294 295 297 298
200 nan 202 213 216 217 222 218 226 227 223 226 nan 235 236 239 239 239 239 241 242 242 241 241 240 238 235 233 230 231 230 227 226 224 224 224 224 225 228 233 228 210 209 222 223 223 219 216 218 219 222 224 226 230 235 238 243 248 251 255 257 256 256 259 261 264 266 267 267 268 270 271 273 276 279 284 289 293 296 298 300 300 300 299 297 299
nan 195 208 206 213 220 227 215 227 233 231 233 236 235 237 238 239 237 236 240 245 246 246 245 243 242 241 238 233 232 232 230 229 229 229 227 225 223 223 225 230 234 216 203 204 208 214 217 220 221 224 225 228 232 235 240 244 249 251 251 253 255 256 258 261 264 267 267 267 268 269 272 274 276 280 280 279 281 283 288 291 292 289 284 282 286
203 206 201 209 215 216 221 220 222 230 231 230 231 236 240 242 nan nan nan nan nan nan nan nan nan 244 243 240 238 237 237 235 233 233 231 230 231 232 231 227 229 230 234 225 214 209 215 211 217 223 224 226 229 232 235 239 241 244 248 250 252 254 257 259 262 265 267 268 270 272 273 274 276 278 281 283 285 286 286 282 281 282 287 284 280 283
212 208 208 212 214 221 221 226 229 238 237 234 231 232 nan nan nan nan nan nan nan nan nan 243 244 245 244 239 235 234 235 238 238 236 234 234 239 240 235 232 231 231 231 233 229 218 213 222 222 223 225 226 229 232 235 238 241 242 246 248 251 254 257 260 262 264 267 269 270 270 271 274 278 281 283 284 286 287 287 286 279 275 274 275 279 279